| time (UTC) | temp F | wind direction | speed MPH | gust MPH | rain 1hr in | rain 24hr in | rain mn in | humidity % | barometer mb |
| 20260504031018 | 50 | 0.0 | 0.0 | 0.00 | 0.02 | 0.00 | 65 | 1020.0 | |
| 20260504030020 | 50 | 0.0 | 0.0 | 0.00 | 0.02 | 0.00 | 66 | 1020.0 | |
| 20260504025020 | 50 | 0.0 | 0.0 | 0.00 | 0.02 | 0.00 | 66 | 1020.0 | |
| 20260504024018 | 50 | 0.0 | 0.0 | 0.00 | 0.02 | 0.00 | 66 | 1020.2 | |
| 20260504023041 | 49 | 0.0 | 0.0 | 0.00 | 0.02 | 0.00 | 66 | 1020.2 | |
| 20260504022020 | 49 | 0.0 | 0.0 | 0.00 | 0.02 | 0.00 | 65 | 1020.1 | |
| 20260504021020 | 49 | 0.0 | 0.0 | 0.00 | 0.02 | 0.00 | 64 | 1020.0 | |
| 20260504020019 | 50 | 0.0 | 0.0 | 0.00 | 0.02 | 0.00 | 64 | 1020.0 | |
| 20260504015018 | 50 | 0.0 | 0.0 | 0.00 | 0.02 | 0.00 | 64 | 1020.1 | |
| 20260504014018 | 50 | 0.0 | 0.0 | 0.00 | 0.02 | 0.00 | 66 | 1019.9 | |
| 20260504013018 | 49 | 0.0 | 0.0 | 0.00 | 0.02 | 0.00 | 65 | 1019.9 | |
| 20260504012018 | 50 | 0.0 | 0.0 | 0.00 | 0.02 | 0.00 | 64 | 1019.8 | |
| 20260504011019 | 0 | 0.0 | 0.0 | 0.00 | 0.02 | 0.00 | |||
| 20260504010053 | 51 | 0.0 | 0.0 | 0.00 | 0.02 | 0.00 | 59 | 1019.4 | |
| 20260504005550 | 51 | 0 | 1.0 | 1.0 | 0.00 | 0.02 | 0.00 | 59 | 1019.6 |
| 20260504005019 | 51 | 0 | 1.0 | 2.0 | 0.00 | 0.02 | 0.00 | 59 | 1019.7 |
| 20260504004019 | 51 | 0 | 1.0 | 3.0 | 0.00 | 0.02 | 0.00 | 58 | 1019.6 |
| 20260504003018 | 52 | 0.0 | 2.0 | 0.00 | 0.02 | 0.00 | 57 | 1019.3 | |
| 20260504002041 | 52 | 0.0 | 2.0 | 0.00 | 0.02 | 0.00 | 57 | 1019.5 | |
| 20260504001017 | 52 | 0 | 1.0 | 3.0 | 0.00 | 0.02 | 0.00 | 56 | 1019.5 |
| 20260504000019 | 53 | 0.0 | 1.0 | 0.00 | 0.02 | 0.00 | 55 | 1019.6 | |
| 20260503235019 | 53 | 0.0 | 1.0 | 0.00 | 0.02 | 0.00 | 54 | 1019.5 | |
| 20260503234019 | 54 | 0.0 | 0.0 | 0.00 | 0.02 | 0.00 | 53 | 1019.5 | |
| 20260503233019 | 54 | 0.0 | 1.0 | 0.00 | 0.02 | 0.00 | 53 | 1019.7 | |
| 20260503232018 | 54 | 0.0 | 1.0 | 0.00 | 0.02 | 0.00 | 52 | 1019.7 | |
| 20260503231018 | 55 | 0.0 | 0.0 | 0.00 | 0.02 | 0.00 | 52 | 1019.8 | |
| 20260503230019 | 56 | 0.0 | 1.0 | 0.00 | 0.02 | 0.00 | 51 | 1019.8 | |
| 20260503225018 | 56 | 0.0 | 1.0 | 0.00 | 0.02 | 0.00 | 51 | 1019.7 | |
| 20260503224017 | 56 | 0.0 | 3.0 | 0.00 | 0.02 | 0.00 | 51 | 1019.7 | |
| 20260503223041 | 56 | 0 | 1.0 | 3.0 | 0.00 | 0.02 | 0.00 | 51 | 1019.8 |
| 20260503222018 | 56 | 0 | 2.0 | 5.0 | 0.00 | 0.02 | 0.00 | 51 | 1019.9 |
| 20260503221040 | 56 | 0 | 1.0 | 4.0 | 0.00 | 0.02 | 0.00 | 49 | 1019.8 |
| 20260503220039 | 56 | 0 | 1.0 | 2.0 | 0.00 | 0.02 | 0.00 | 46 | 1019.6 |
| 20260503215017 | 57 | 0.0 | 3.0 | 0.00 | 0.02 | 0.00 | 45 | 1019.7 | |
| 20260503214018 | 57 | 0.0 | 0.0 | 0.00 | 0.02 | 0.00 | 45 | 1019.7 | |
| 20260503213040 | 58 | 0.0 | 2.0 | 0.00 | 0.02 | 0.00 | 42 | 1019.6 | |
| 20260503212018 | 58 | 0.0 | 0.0 | 0.00 | 0.02 | 0.00 | 43 | 1019.5 | |
| 20260503211018 | 58 | 0.0 | 2.0 | 0.00 | 0.02 | 0.00 | 41 | 1019.5 | |
| 20260503210017 | 58 | 0.0 | 2.0 | 0.00 | 0.02 | 0.02 | 42 | 1019.4 | |
| 20260503205041 | 58 | 0.0 | 2.0 | 0.00 | 0.02 | 0.02 | 42 | 1019.3 | |
| 20260503204019 | 58 | 0.0 | 2.0 | 0.00 | 0.02 | 0.02 | 40 | 1019.5 | |
| 20260503203019 | 58 | 0 | 2.0 | 5.0 | 0.00 | 0.02 | 0.02 | 39 | 1019.4 |
| 20260503202018 | 58 | 0 | 3.0 | 10.0 | 0.00 | 0.02 | 0.02 | 39 | 1019.4 |
| 20260503201043 | 58 | 0 | 3.0 | 9.0 | 0.00 | 0.02 | 0.02 | 40 | 1019.2 |
| 20260503200040 | 58 | 0 | 2.0 | 5.0 | 0.00 | 0.02 | 0.02 | 41 | 1019.2 |
| 20260503195019 | 58 | 0 | 2.0 | 6.0 | 0.00 | 0.02 | 0.02 | 41 | 1019.2 |
| 20260503194018 | 59 | 0.0 | 3.0 | 0.00 | 0.02 | 0.02 | 41 | 1019.2 | |
| 20260503193019 | 59 | 0.0 | 3.0 | 0.00 | 0.02 | 0.02 | 41 | 1019.2 | |
| 20260503192020 | 59 | 0 | 1.0 | 4.0 | 0.00 | 0.02 | 0.02 | 41 | 1019.2 |
| 20260503191041 | 60 | 0.0 | 2.0 | 0.00 | 0.02 | 0.02 | 40 | 1019.2 | |
| 20260503190018 | 60 | 0 | 1.0 | 5.0 | 0.00 | 0.02 | 0.02 | 40 | 1019.2 |
| 20260503185018 | 60 | 0 | 3.0 | 6.0 | 0.00 | 0.02 | 0.02 | 39 | 1019.2 |
| 20260503184040 | 61 | 0 | 1.0 | 5.0 | 0.00 | 0.02 | 0.02 | 39 | 1019.0 |
| 20260503183018 | 61 | 0 | 2.0 | 5.0 | 0.00 | 0.02 | 0.02 | 37 | 1018.7 |
| 20260503182020 | 61 | 0 | 2.0 | 9.0 | 0.00 | 0.02 | 0.02 | 37 | 1018.5 |
| 20260503181018 | 62 | 0 | 2.0 | 8.0 | 0.00 | 0.02 | 0.02 | 36 | 1018.3 |
| 20260503180018 | 62 | 0 | 2.0 | 5.0 | 0.00 | 0.02 | 0.02 | 36 | 1018.2 |
| 20260503175019 | 63 | 0 | 2.0 | 4.0 | 0.00 | 0.02 | 0.02 | 36 | 1018.3 |
| 20260503174018 | 63 | 0 | 1.0 | 4.0 | 0.00 | 0.02 | 0.02 | 36 | 1018.2 |
| 20260503173018 | 64 | 0 | 1.0 | 2.0 | 0.00 | 0.02 | 0.02 | 36 | 1018.2 |
| 20260503172020 | 64 | 0 | 1.0 | 2.0 | 0.00 | 0.02 | 0.02 | 35 | 1018.0 |
| 20260503171020 | 65 | 0 | 1.0 | 4.0 | 0.00 | 0.02 | 0.02 | 34 | 1017.9 |
| 20260503131019 | 62 | 0 | 2.0 | 6.0 | 0.00 | 0.03 | 0.02 | 41 | 1018.3 |
| 20260503081019 | 59 | 0 | 1.0 | 4.0 | 0.00 | 0.03 | 0.02 | 50 | 1019.9 |
| 20260503072019 | 56 | 0 | 1.0 | 5.0 | 0.00 | 0.03 | 0.02 | 69 | 1020.0 |
| 20260503071019 | 55 | 0 | 2.0 | 6.0 | 0.00 | 0.03 | 0.02 | 70 | 1019.8 |
| 20260503055019 | 51 | 0 | 3.0 | 4.0 | 0.02 | 0.03 | 0.02 | 75 | 1019.5 |
| 20260503054019 | 50 | 0 | 3.0 | 5.0 | 0.02 | 0.03 | 0.02 | 75 | 1019.5 |
| 20260503053020 | 50 | 0 | 5.0 | 8.0 | 0.02 | 0.03 | 0.02 | 75 | 1019.6 |
| 20260503052018 | 51 | 0 | 5.0 | 8.0 | 0.02 | 0.03 | 0.02 | 74 | 1019.6 |
| 20260503051020 | 51 | 0 | 6.0 | 10.0 | 0.02 | 0.02 | 0.02 | 73 | 1019.5 |
| 20260503050019 | 52 | 0 | 2.0 | 8.0 | 0.00 | 0.01 | 0.00 | 71 | 1019.1 |
| 20260503045041 | 52 | 0 | 4.0 | 10.0 | 0.00 | 0.01 | 0.00 | 71 | 1018.8 |
| 20260503044018 | 52 | 0 | 2.0 | 6.0 | 0.00 | 0.01 | 0.00 | 70 | 1018.8 |
| 20260503043019 | 52 | 0 | 1.0 | 4.0 | 0.00 | 0.01 | 0.00 | 69 | 1018.6 |
| 20260503042020 | 52 | 0 | 2.0 | 5.0 | 0.00 | 0.01 | 0.00 | 68 | 1018.7 |
| 20260503041041 | 52 | 0 | 1.0 | 3.0 | 0.00 | 0.01 | 0.00 | 68 | 1018.7 |
| 20260503040020 | 52 | 0 | 3.0 | 4.0 | 0.00 | 0.01 | 0.00 | 69 | 1018.6 |
| 20260503035020 | 51 | 0 | 3.0 | 5.0 | 0.00 | 0.01 | 0.00 | 70 | 1018.5 |
| 20260503034042 | 51 | 0.0 | 0.0 | 0.00 | 0.01 | 0.00 | 70 | 1018.4 | |
| 20260503033021 | 51 | 0.0 | 0.0 | 0.00 | 0.01 | 0.00 | 70 | 1018.2 | |
| 20260503032019 | 50 | 0 | 1.0 | 2.0 | 0.00 | 0.01 | 0.00 | 70 | 1018.1 |